{"data":{"norad_id":62812,"epoch":"2026-09-21T20:54:35.266464Z","epoch_age_seconds":49757,"freshness":"FRESH","line1":"1 62812U 25018G   26264.87124151  .00014183  00000+0  43003-3 0  9993","line2":"2 62812  53.1575 115.6015 0001180  77.1349 282.9786 15.34404703 93259","mean_motion":15.34404703,"eccentricity":0.000118,"inclination_deg":53.1575,"raan_deg":115.6015,"arg_perigee_deg":77.1349,"mean_anomaly_deg":282.9786,"bstar":0.00043003,"rev_number":9325,"period_min":93.847470434923,"perigee_km":461.88204443679,"apogee_km":463.4964794346,"semimajor_km":6840.8262619357,"source":"CELESTRAK","updated_at":"2026-09-22T09:00:49.667560Z"}}